Time,TemperatureF,DewpointF,PressureIn,WindDirection,WindDirectionDegrees,WindSpeedMPH,WindSpeedGustMPH,Humidity,HourlyPrecipIn,Conditions,Clouds,dailyrainin,SoftwareType,DateUTC
2013-03-16 00:00:00,46.7,-99.9,30.10,SW,225,0.0,-999.0,0,0.01,,,0.87,Wunderground v.1.15,2013-03-16 07:00:00,
2013-03-16 00:05:00,46.7,-99.9,30.10,SW,225,0.0,-999.0,0,0.01,,,0.87,Wunderground v.1.15,2013-03-16 07:05:00,
2013-03-16 00:10:00,46.7,-99.9,30.10,SW,225,0.0,-999.0,0,0.01,,,0.87,Wunderground v.1.15,2013-03-16 07:10:00,
2013-03-16 00:15:00,46.7,-99.9,30.10,SW,225,0.0,-999.0,0,0.00,,,0.87,Wunderground v.1.15,2013-03-16 07:15:00,
2013-03-16 00:20:00,46.7,-99.9,30.10,SW,225,0.0,-999.0,0,0.00,,,0.87,Wunderground v.1.15,2013-03-16 07:20:00,
2013-03-16 00:25:00,46.7,-99.9,30.10,SW,225,0.0,-999.0,0,0.00,,,0.87,Wunderground v.1.15,2013-03-16 07:25:00,
2013-03-16 00:30:00,46.7,-99.9,30.10,SW,225,0.0,-999.0,0,0.00,,,0.87,Wunderground v.1.15,2013-03-16 07:30:00,
2013-03-16 00:35:00,46.7,-99.9,30.10,SW,225,0.0,-999.0,0,0.00,,,0.87,Wunderground v.1.15,2013-03-16 07:35:00,
2013-03-16 00:40:00,46.7,-99.9,30.10,SW,225,0.0,-999.0,0,0.00,,,0.87,Wunderground v.1.15,2013-03-16 07:40:00,
2013-03-16 00:45:00,46.6,-99.9,30.10,SE,135,0.0,-999.0,0,0.01,,,0.87,Wunderground v.1.15,2013-03-16 07:45:00,
2013-03-16 00:50:00,46.6,-99.9,30.10,SE,135,0.0,-999.0,0,0.01,,,0.87,Wunderground v.1.15,2013-03-16 07:50:00,
2013-03-16 00:55:00,46.6,-99.9,30.10,SE,135,0.0,-999.0,0,0.01,,,0.87,Wunderground v.1.15,2013-03-16 07:55:00,
2013-03-16 01:00:00,46.6,-99.9,30.10,SE,135,0.0,-999.0,0,0.01,,,0.87,Wunderground v.1.15,2013-03-16 08:00:00,
2013-03-16 01:05:00,46.6,-99.9,30.10,SE,135,0.0,-999.0,0,0.01,,,0.87,Wunderground v.1.15,2013-03-16 08:05:00,
2013-03-16 01:10:00,46.6,-99.9,30.10,SE,135,0.0,-999.0,0,0.01,,,0.87,Wunderground v.1.15,2013-03-16 08:10:00,
2013-03-16 01:15:00,46.4,-99.9,30.10,N/A,-737280,0.0,-999.0,0,0.01,,,0.87,Wunderground v.1.15,2013-03-16 08:15:00,
2013-03-16 01:20:00,46.4,-99.9,30.10,N/A,-737280,0.0,-999.0,0,0.01,,,0.87,Wunderground v.1.15,2013-03-16 08:20:00,
2013-03-16 01:25:00,46.4,-99.9,30.10,N/A,-737280,0.0,-999.0,0,0.01,,,0.87,Wunderground v.1.15,2013-03-16 08:25:00,
2013-03-16 01:30:00,46.4,-99.9,30.10,N/A,-737280,0.0,-999.0,0,0.01,,,0.87,Wunderground v.1.15,2013-03-16 08:30:00,
2013-03-16 01:35:00,46.4,-99.9,30.10,N/A,-737280,0.0,-999.0,0,0.01,,,0.87,Wunderground v.1.15,2013-03-16 08:35:00,
2013-03-16 01:40:00,46.4,-99.9,30.10,N/A,-737280,0.0,-999.0,0,0.01,,,0.87,Wunderground v.1.15,2013-03-16 08:40:00,
2013-03-16 01:45:00,46.4,-99.9,30.09,SW,225,0.0,-999.0,0,0.02,,,0.87,Wunderground v.1.15,2013-03-16 08:45:00,
2013-03-16 01:50:00,46.4,-99.9,30.09,SW,225,0.0,-999.0,0,0.02,,,0.87,Wunderground v.1.15,2013-03-16 08:50:00,
2013-03-16 01:55:00,46.4,-99.9,30.09,SW,225,0.0,-999.0,0,0.02,,,0.87,Wunderground v.1.15,2013-03-16 08:55:00,
2013-03-16 02:00:00,46.4,-99.9,30.09,SW,225,0.0,-999.0,0,0.02,,,0.87,Wunderground v.1.15,2013-03-16 09:00:00,
2013-03-16 02:05:00,46.4,-99.9,30.09,SW,225,0.0,-999.0,0,0.02,,,0.87,Wunderground v.1.15,2013-03-16 09:05:00,
2013-03-16 02:10:00,46.4,-99.9,30.09,SW,225,0.0,-999.0,0,0.02,,,0.87,Wunderground v.1.15,2013-03-16 09:10:00,
2013-03-16 02:15:00,46.3,-99.9,30.09,SW,225,1.0,-999.0,0,0.06,,,0.87,Wunderground v.1.15,2013-03-16 09:15:00,
2013-03-16 02:20:00,46.3,-99.9,30.09,SW,225,1.0,-999.0,0,0.06,,,0.87,Wunderground v.1.15,2013-03-16 09:20:00,
2013-03-16 02:25:00,46.3,-99.9,30.09,SW,225,1.0,-999.0,0,0.06,,,0.87,Wunderground v.1.15,2013-03-16 09:25:00,
2013-03-16 02:30:00,46.3,-99.9,30.09,SW,225,1.0,-999.0,0,0.06,,,0.87,Wunderground v.1.15,2013-03-16 09:30:00,
2013-03-16 02:35:00,46.3,-99.9,30.09,SW,225,1.0,-999.0,0,0.06,,,0.87,Wunderground v.1.15,2013-03-16 09:35:00,
2013-03-16 02:40:00,46.3,-99.9,30.09,SW,225,1.0,-999.0,0,0.06,,,0.87,Wunderground v.1.15,2013-03-16 09:40:00,
2013-03-16 02:45:00,46.3,-99.9,30.09,SE,135,1.0,-999.0,0,0.13,,,0.87,Wunderground v.1.15,2013-03-16 09:45:00,
2013-03-16 02:50:00,46.3,-99.9,30.09,SE,135,1.0,-999.0,0,0.13,,,0.87,Wunderground v.1.15,2013-03-16 09:50:00,
2013-03-16 02:55:00,46.3,-99.9,30.09,SE,135,1.0,-999.0,0,0.13,,,0.87,Wunderground v.1.15,2013-03-16 09:55:00,
2013-03-16 03:00:00,46.3,-99.9,30.09,SE,135,1.0,-999.0,0,0.13,,,0.87,Wunderground v.1.15,2013-03-16 10:00:00,
2013-03-16 03:05:00,46.3,-99.9,30.09,SE,135,1.0,-999.0,0,0.13,,,0.87,Wunderground v.1.15,2013-03-16 10:05:00,
2013-03-16 03:10:00,46.3,-99.9,30.09,SE,135,1.0,-999.0,0,0.13,,,0.87,Wunderground v.1.15,2013-03-16 10:10:00,
2013-03-16 03:15:00,46.1,-99.9,30.08,SW,225,1.0,-999.0,0,0.12,,,0.87,Wunderground v.1.15,2013-03-16 10:15:00,
2013-03-16 03:20:00,46.1,-99.9,30.08,SW,225,1.0,-999.0,0,0.12,,,0.87,Wunderground v.1.15,2013-03-16 10:20:00,
2013-03-16 03:25:00,46.1,-99.9,30.08,SW,225,1.0,-999.0,0,0.12,,,0.87,Wunderground v.1.15,2013-03-16 10:25:00,
2013-03-16 03:30:00,46.1,-99.9,30.08,SW,225,1.0,-999.0,0,0.12,,,0.87,Wunderground v.1.15,2013-03-16 10:30:00,
2013-03-16 03:35:00,46.1,-99.9,30.08,SW,225,1.0,-999.0,0,0.12,,,0.87,Wunderground v.1.15,2013-03-16 10:35:00,
2013-03-16 03:40:00,46.1,-99.9,30.08,SW,225,1.0,-999.0,0,0.12,,,0.87,Wunderground v.1.15,2013-03-16 10:40:00,
2013-03-16 03:45:00,45.9,-99.9,30.07,SW,225,1.0,-999.0,0,0.04,,,0.87,Wunderground v.1.15,2013-03-16 10:45:00,
2013-03-16 03:50:00,45.9,-99.9,30.07,SW,225,1.0,-999.0,0,0.04,,,0.87,Wunderground v.1.15,2013-03-16 10:50:00,
2013-03-16 03:55:00,45.9,-99.9,30.07,SW,225,1.0,-999.0,0,0.04,,,0.87,Wunderground v.1.15,2013-03-16 10:55:00,
2013-03-16 04:00:00,45.9,-99.9,30.07,SW,225,1.0,-999.0,0,0.04,,,0.87,Wunderground v.1.15,2013-03-16 11:00:00,
2013-03-16 04:05:00,45.9,-99.9,30.07,SW,225,1.0,-999.0,0,0.04,,,0.87,Wunderground v.1.15,2013-03-16 11:05:00,
2013-03-16 04:10:00,45.9,-99.9,30.07,SW,225,1.0,-999.0,0,0.04,,,0.87,Wunderground v.1.15,2013-03-16 11:10:00,
2013-03-16 04:15:00,45.8,-99.9,30.06,SW,225,0.0,-999.0,0,0.02,,,0.87,Wunderground v.1.15,2013-03-16 11:15:00,
2013-03-16 04:20:00,45.8,-99.9,30.06,SW,225,0.0,-999.0,0,0.02,,,0.87,Wunderground v.1.15,2013-03-16 11:20:00,
2013-03-16 04:25:00,45.8,-99.9,30.06,SW,225,0.0,-999.0,0,0.02,,,0.87,Wunderground v.1.15,2013-03-16 11:25:00,
2013-03-16 04:30:00,45.8,-99.9,30.06,SW,225,0.0,-999.0,0,0.02,,,0.87,Wunderground v.1.15,2013-03-16 11:30:00,
2013-03-16 04:35:00,45.8,-99.9,30.06,SW,225,0.0,-999.0,0,0.02,,,0.87,Wunderground v.1.15,2013-03-16 11:35:00,
2013-03-16 04:40:00,45.8,-99.9,30.06,SW,225,0.0,-999.0,0,0.02,,,0.87,Wunderground v.1.15,2013-03-16 11:40:00,
2013-03-16 04:45:00,45.7,-99.9,30.05,SW,225,0.0,-999.0,0,0.02,,,0.87,Wunderground v.1.15,2013-03-16 11:45:00,
2013-03-16 04:50:00,45.7,-99.9,30.05,SW,225,0.0,-999.0,0,0.02,,,0.87,Wunderground v.1.15,2013-03-16 11:50:00,
2013-03-16 04:55:00,45.7,-99.9,30.05,SW,225,0.0,-999.0,0,0.02,,,0.87,Wunderground v.1.15,2013-03-16 11:55:00,
2013-03-16 05:00:00,45.7,-99.9,30.05,SW,225,0.0,-999.0,0,0.02,,,0.87,Wunderground v.1.15,2013-03-16 12:00:00,
2013-03-16 05:05:00,45.7,-99.9,30.05,SW,225,0.0,-999.0,0,0.02,,,0.87,Wunderground v.1.15,2013-03-16 12:05:00,
2013-03-16 05:10:00,45.7,-99.9,30.05,SW,225,0.0,-999.0,0,0.02,,,0.87,Wunderground v.1.15,2013-03-16 12:10:00,
2013-03-16 05:15:00,45.5,-99.9,30.04,SW,225,0.0,-999.0,0,0.02,,,0.87,Wunderground v.1.15,2013-03-16 12:15:00,
2013-03-16 05:20:00,45.5,-99.9,30.04,SW,225,0.0,-999.0,0,0.02,,,0.87,Wunderground v.1.15,2013-03-16 12:20:00,
2013-03-16 05:25:00,45.5,-99.9,30.04,SW,225,0.0,-999.0,0,0.02,,,0.87,Wunderground v.1.15,2013-03-16 12:25:00,
2013-03-16 05:30:00,45.5,-99.9,30.04,SW,225,0.0,-999.0,0,0.02,,,0.87,Wunderground v.1.15,2013-03-16 12:30:00,
2013-03-16 05:35:00,45.5,-99.9,30.04,SW,225,0.0,-999.0,0,0.02,,,0.87,Wunderground v.1.15,2013-03-16 12:35:00,
2013-03-16 05:40:00,45.5,-99.9,30.04,SW,225,0.0,-999.0,0,0.02,,,0.87,Wunderground v.1.15,2013-03-16 12:40:00,
2013-03-16 05:45:00,45.3,-99.9,30.04,SSE,158,0.0,-999.0,0,0.02,,,0.87,Wunderground v.1.15,2013-03-16 12:45:00,
2013-03-16 05:50:00,45.3,-99.9,30.04,SSE,158,0.0,-999.0,0,0.02,,,0.87,Wunderground v.1.15,2013-03-16 12:50:00,
2013-03-16 05:55:00,45.3,-99.9,30.04,SSE,158,0.0,-999.0,0,0.02,,,0.87,Wunderground v.1.15,2013-03-16 12:55:00,
2013-03-16 06:00:00,45.3,-99.9,30.04,SSE,158,0.0,-999.0,0,0.02,,,0.87,Wunderground v.1.15,2013-03-16 13:00:00,
2013-03-16 06:05:00,45.3,-99.9,30.04,SSE,158,0.0,-999.0,0,0.02,,,0.87,Wunderground v.1.15,2013-03-16 13:05:00,
2013-03-16 06:10:00,45.3,-99.9,30.04,SSE,158,0.0,-999.0,0,0.02,,,0.87,Wunderground v.1.15,2013-03-16 13:10:00,
2013-03-16 06:15:00,45.2,-99.9,30.02,SSE,158,0.0,-999.0,0,0.06,,,0.87,Wunderground v.1.15,2013-03-16 13:15:00,
2013-03-16 06:20:00,45.2,-99.9,30.02,SSE,158,0.0,-999.0,0,0.06,,,0.87,Wunderground v.1.15,2013-03-16 13:20:00,
2013-03-16 06:25:00,45.2,-99.9,30.02,SSE,158,0.0,-999.0,0,0.06,,,0.87,Wunderground v.1.15,2013-03-16 13:25:00,
2013-03-16 06:30:00,45.2,-99.9,30.02,SSE,158,0.0,-999.0,0,0.06,,,0.87,Wunderground v.1.15,2013-03-16 13:30:00,
2013-03-16 06:35:00,45.2,-99.9,30.02,SSE,158,0.0,-999.0,0,0.06,,,0.87,Wunderground v.1.15,2013-03-16 13:35:00,
2013-03-16 06:40:00,45.2,-99.9,30.02,SSE,158,0.0,-999.0,0,0.06,,,0.87,Wunderground v.1.15,2013-03-16 13:40:00,
2013-03-16 06:45:00,45.0,-99.9,30.01,ESE,113,0.0,-999.0,0,0.05,,,0.87,Wunderground v.1.15,2013-03-16 13:45:00,
2013-03-16 06:50:00,45.0,-99.9,30.01,ESE,113,0.0,-999.0,0,0.05,,,0.87,Wunderground v.1.15,2013-03-16 13:50:00,
2013-03-16 06:55:00,45.0,-99.9,30.01,ESE,113,0.0,-999.0,0,0.05,,,0.87,Wunderground v.1.15,2013-03-16 13:55:00,
2013-03-16 07:00:00,45.0,-99.9,30.01,ESE,113,0.0,-999.0,0,0.05,,,0.87,Wunderground v.1.15,2013-03-16 14:00:00,
2013-03-16 07:05:00,45.0,-99.9,30.01,ESE,113,0.0,-999.0,0,0.05,,,0.87,Wunderground v.1.15,2013-03-16 14:05:00,
2013-03-16 07:10:00,45.0,-99.9,30.01,ESE,113,0.0,-999.0,0,0.05,,,0.87,Wunderground v.1.15,2013-03-16 14:10:00,
2013-03-16 07:15:00,45.0,-99.9,30.01,North,0,0.0,-999.0,0,0.00,,,0.87,Wunderground v.1.15,2013-03-16 14:15:00,
2013-03-16 07:20:00,45.0,-99.9,30.01,North,0,0.0,-999.0,0,0.00,,,0.87,Wunderground v.1.15,2013-03-16 14:20:00,
2013-03-16 07:25:00,45.0,-99.9,30.01,North,0,0.0,-999.0,0,0.00,,,0.87,Wunderground v.1.15,2013-03-16 14:25:00,
2013-03-16 07:30:00,45.0,-99.9,30.01,North,0,0.0,-999.0,0,0.00,,,0.87,Wunderground v.1.15,2013-03-16 14:30:00,
2013-03-16 07:35:00,45.0,-99.9,30.01,North,0,0.0,-999.0,0,0.00,,,0.87,Wunderground v.1.15,2013-03-16 14:35:00,
2013-03-16 07:40:00,45.0,-99.9,30.01,North,0,0.0,-999.0,0,0.00,,,0.87,Wunderground v.1.15,2013-03-16 14:40:00,
2013-03-16 07:45:00,45.0,-99.9,30.01,NNE,23,0.0,-999.0,0,0.00,,,0.87,Wunderground v.1.15,2013-03-16 14:45:00,
2013-03-16 07:50:00,45.0,-99.9,30.01,NNE,23,0.0,-999.0,0,0.00,,,0.87,Wunderground v.1.15,2013-03-16 14:50:00,
2013-03-16 07:55:00,45.0,-99.9,30.01,NNE,23,0.0,-999.0,0,0.00,,,0.87,Wunderground v.1.15,2013-03-16 14:55:00,
2013-03-16 08:00:00,45.0,-99.9,30.01,NNE,23,0.0,-999.0,0,0.00,,,0.87,Wunderground v.1.15,2013-03-16 15:00:00,
2013-03-16 08:05:00,45.0,-99.9,30.01,NNE,23,0.0,-999.0,0,0.00,,,0.87,Wunderground v.1.15,2013-03-16 15:05:00,
2013-03-16 08:10:00,45.0,-99.9,30.01,NNE,23,0.0,-999.0,0,0.00,,,0.87,Wunderground v.1.15,2013-03-16 15:10:00,
2013-03-16 08:15:00,45.0,-99.9,30.01,North,0,0.0,-999.0,0,0.00,,,0.87,Wunderground v.1.15,2013-03-16 15:15:00,
2013-03-16 08:20:00,45.0,-99.9,30.01,North,0,0.0,-999.0,0,0.00,,,0.87,Wunderground v.1.15,2013-03-16 15:20:00,
2013-03-16 08:25:00,45.0,-99.9,30.01,North,0,0.0,-999.0,0,0.00,,,0.87,Wunderground v.1.15,2013-03-16 15:25:00,
2013-03-16 08:30:00,45.0,-99.9,30.01,North,0,0.0,-999.0,0,0.00,,,0.87,Wunderground v.1.15,2013-03-16 15:30:00,
2013-03-16 08:35:00,45.0,-99.9,30.01,North,0,0.0,-999.0,0,0.00,,,0.87,Wunderground v.1.15,2013-03-16 15:35:00,
2013-03-16 08:40:00,45.0,-99.9,30.01,North,0,0.0,-999.0,0,0.00,,,0.87,Wunderground v.1.15,2013-03-16 15:40:00,
2013-03-16 08:45:00,45.3,-99.9,30.00,SE,135,0.0,-999.0,0,0.00,,,0.87,Wunderground v.1.15,2013-03-16 15:45:00,
2013-03-16 08:50:00,45.3,-99.9,30.00,SE,135,0.0,-999.0,0,0.00,,,0.87,Wunderground v.1.15,2013-03-16 15:50:00,
2013-03-16 08:55:00,45.3,-99.9,30.00,SE,135,0.0,-999.0,0,0.00,,,0.87,Wunderground v.1.15,2013-03-16 15:55:00,
2013-03-16 09:00:00,45.3,-99.9,30.00,SE,135,0.0,-999.0,0,0.00,,,0.87,Wunderground v.1.15,2013-03-16 16:00:00,
2013-03-16 09:05:00,45.3,-99.9,30.00,SE,135,0.0,-999.0,0,0.00,,,0.87,Wunderground v.1.15,2013-03-16 16:05:00,
2013-03-16 09:10:00,45.3,-99.9,30.00,SE,135,0.0,-999.0,0,0.00,,,0.87,Wunderground v.1.15,2013-03-16 16:10:00,
2013-03-16 09:15:00,45.6,-15.2,30.00,SW,225,1.0,-999.0,7,0.00,,,0.87,Wunderground v.1.15,2013-03-16 16:15:00,
2013-03-16 09:20:00,45.6,-15.2,30.00,SW,225,1.0,-999.0,7,0.00,,,0.87,Wunderground v.1.15,2013-03-16 16:20:00,
2013-03-16 09:25:00,45.6,-15.2,30.00,SW,225,1.0,-999.0,7,0.00,,,0.87,Wunderground v.1.15,2013-03-16 16:25:00,
2013-03-16 09:30:00,45.6,-15.2,30.00,SW,225,1.0,-999.0,7,0.00,,,0.87,Wunderground v.1.15,2013-03-16 16:30:00,
2013-03-16 09:35:00,45.6,-15.2,30.00,SW,225,1.0,-999.0,7,0.00,,,0.87,Wunderground v.1.15,2013-03-16 16:35:00,
2013-03-16 09:40:00,45.6,-15.2,30.00,SW,225,1.0,-999.0,7,0.00,,,0.87,Wunderground v.1.15,2013-03-16 16:40:00,
2013-03-16 09:45:00,45.8,-12.3,29.99,East,90,0.0,-999.0,8,0.00,,,0.87,Wunderground v.1.15,2013-03-16 16:45:00,
2013-03-16 09:50:00,45.8,-12.3,29.99,East,90,0.0,-999.0,8,0.00,,,0.87,Wunderground v.1.15,2013-03-16 16:50:00,
2013-03-16 09:55:00,45.8,-12.3,29.99,East,90,0.0,-999.0,8,0.00,,,0.87,Wunderground v.1.15,2013-03-16 16:55:00,
2013-03-16 10:00:00,45.8,-12.3,29.99,East,90,0.0,-999.0,8,0.00,,,0.87,Wunderground v.1.15,2013-03-16 17:00:00,
2013-03-16 10:05:00,45.8,-12.3,29.99,East,90,0.0,-999.0,8,0.00,,,0.87,Wunderground v.1.15,2013-03-16 17:05:00,
2013-03-16 10:10:00,45.8,-12.3,29.99,East,90,0.0,-999.0,8,0.00,,,0.87,Wunderground v.1.15,2013-03-16 17:10:00,
2013-03-16 10:15:00,45.7,-7.9,29.98,East,90,1.0,-999.0,10,0.00,,,0.87,Wunderground v.1.15,2013-03-16 17:15:00,
2013-03-16 10:20:00,45.7,-7.9,29.98,East,90,1.0,-999.0,10,0.00,,,0.87,Wunderground v.1.15,2013-03-16 17:20:00,
2013-03-16 10:25:00,45.7,-7.9,29.98,East,90,1.0,-999.0,10,0.00,,,0.87,Wunderground v.1.15,2013-03-16 17:25:00,
2013-03-16 10:30:00,45.7,-7.9,29.98,East,90,1.0,-999.0,10,0.00,,,0.87,Wunderground v.1.15,2013-03-16 17:30:00,
2013-03-16 10:35:00,45.7,-7.9,29.98,East,90,1.0,-999.0,10,0.00,,,0.87,Wunderground v.1.15,2013-03-16 17:35:00,
2013-03-16 10:40:00,45.7,-7.9,29.98,East,90,1.0,-999.0,10,0.00,,,0.87,Wunderground v.1.15,2013-03-16 17:40:00,
2013-03-16 10:45:00,46.2,15.6,29.97,SSE,158,1.0,-999.0,29,0.00,,,0.87,Wunderground v.1.15,2013-03-16 17:45:00,
2013-03-16 10:50:00,46.2,15.6,29.97,SSE,158,1.0,-999.0,29,0.00,,,0.87,Wunderground v.1.15,2013-03-16 17:50:00,
2013-03-16 10:55:00,46.2,15.6,29.97,SSE,158,1.0,-999.0,29,0.00,,,0.87,Wunderground v.1.15,2013-03-16 17:55:00,
2013-03-16 11:00:00,46.2,15.6,29.97,SSE,158,1.0,-999.0,29,0.00,,,0.87,Wunderground v.1.15,2013-03-16 18:00:00,
2013-03-16 11:05:00,46.2,15.6,29.97,SSE,158,1.0,-999.0,29,0.00,,,0.87,Wunderground v.1.15,2013-03-16 18:05:00,
2013-03-16 11:10:00,46.2,15.6,29.97,SSE,158,1.0,-999.0,29,0.00,,,0.87,Wunderground v.1.15,2013-03-16 18:10:00,
2013-03-16 11:15:00,46.4,29.2,29.96,NNE,23,1.0,-999.0,51,0.00,,,0.87,Wunderground v.1.15,2013-03-16 18:15:00,
2013-03-16 11:20:00,46.4,29.2,29.96,NNE,23,1.0,-999.0,51,0.00,,,0.87,Wunderground v.1.15,2013-03-16 18:20:00,
2013-03-16 11:25:00,46.4,29.2,29.96,NNE,23,1.0,-999.0,51,0.00,,,0.87,Wunderground v.1.15,2013-03-16 18:25:00,
2013-03-16 11:30:00,46.4,29.2,29.96,NNE,23,1.0,-999.0,51,0.00,,,0.87,Wunderground v.1.15,2013-03-16 18:30:00,
2013-03-16 11:35:00,46.4,29.2,29.96,NNE,23,1.0,-999.0,51,0.00,,,0.87,Wunderground v.1.15,2013-03-16 18:35:00,
2013-03-16 11:40:00,46.4,29.2,29.96,NNE,23,1.0,-999.0,51,0.00,,,0.87,Wunderground v.1.15,2013-03-16 18:40:00,
2013-03-16 11:45:00,46.6,37.3,29.95,SW,225,2.0,-999.0,70,0.00,,,0.87,Wunderground v.1.15,2013-03-16 18:45:00,
2013-03-16 11:50:00,46.6,37.3,29.95,SW,225,2.0,-999.0,70,0.00,,,0.87,Wunderground v.1.15,2013-03-16 18:50:00,
2013-03-16 11:55:00,46.6,37.3,29.95,SW,225,2.0,-999.0,70,0.00,,,0.87,Wunderground v.1.15,2013-03-16 18:55:00,
2013-03-16 12:00:00,46.6,37.3,29.95,SW,225,2.0,-999.0,70,0.00,,,0.87,Wunderground v.1.15,2013-03-16 19:00:00,
2013-03-16 12:05:00,46.6,37.3,29.95,SW,225,2.0,-999.0,70,0.00,,,0.87,Wunderground v.1.15,2013-03-16 19:05:00,
2013-03-16 12:10:00,46.6,37.3,29.95,SW,225,2.0,-999.0,70,0.00,,,0.87,Wunderground v.1.15,2013-03-16 19:10:00,
2013-03-16 12:15:00,47.1,39.2,29.93,SW,225,1.0,-999.0,74,0.00,,,0.87,Wunderground v.1.15,2013-03-16 19:15:00,
2013-03-16 12:20:00,47.1,39.2,29.93,SW,225,1.0,-999.0,74,0.00,,,0.87,Wunderground v.1.15,2013-03-16 19:20:00,
2013-03-16 12:25:00,47.1,39.2,29.93,SW,225,1.0,-999.0,74,0.00,,,0.87,Wunderground v.1.15,2013-03-16 19:25:00,
2013-03-16 12:30:00,47.1,39.2,29.93,SW,225,1.0,-999.0,74,0.00,,,0.87,Wunderground v.1.15,2013-03-16 19:30:00,
2013-03-16 12:35:00,47.1,39.2,29.93,SW,225,1.0,-999.0,74,0.00,,,0.87,Wunderground v.1.15,2013-03-16 19:35:00,
2013-03-16 12:40:00,47.1,39.2,29.93,SW,225,1.0,-999.0,74,0.00,,,0.87,Wunderground v.1.15,2013-03-16 19:40:00,
2013-03-16 12:45:00,47.0,38.4,29.91,SW,225,2.0,-999.0,72,0.00,,,0.87,Wunderground v.1.15,2013-03-16 19:45:00,
2013-03-16 12:50:00,47.0,38.4,29.91,SW,225,2.0,-999.0,72,0.00,,,0.87,Wunderground v.1.15,2013-03-16 19:50:00,
2013-03-16 12:55:00,47.0,38.4,29.91,SW,225,2.0,-999.0,72,0.00,,,0.87,Wunderground v.1.15,2013-03-16 19:55:00,
2013-03-16 13:00:00,47.0,38.4,29.91,SW,225,2.0,-999.0,72,0.00,,,0.87,Wunderground v.1.15,2013-03-16 20:00:00,
2013-03-16 13:05:00,47.0,38.4,29.91,SW,225,2.0,-999.0,72,0.00,,,0.87,Wunderground v.1.15,2013-03-16 20:05:00,
2013-03-16 13:10:00,47.0,38.4,29.91,SW,225,2.0,-999.0,72,0.00,,,0.87,Wunderground v.1.15,2013-03-16 20:10:00,
2013-03-16 13:15:00,47.1,37.4,29.89,SW,225,1.0,-999.0,69,0.01,,,0.87,Wunderground v.1.15,2013-03-16 20:15:00,
2013-03-16 13:20:00,47.1,37.4,29.89,SW,225,1.0,-999.0,69,0.01,,,0.87,Wunderground v.1.15,2013-03-16 20:20:00,
2013-03-16 13:25:00,47.1,37.4,29.89,SW,225,1.0,-999.0,69,0.01,,,0.87,Wunderground v.1.15,2013-03-16 20:25:00,
2013-03-16 13:30:00,47.1,37.4,29.89,SW,225,1.0,-999.0,69,0.01,,,0.87,Wunderground v.1.15,2013-03-16 20:30:00,
2013-03-16 13:35:00,47.1,37.4,29.89,SW,225,1.0,-999.0,69,0.01,,,0.87,Wunderground v.1.15,2013-03-16 20:35:00,
2013-03-16 13:40:00,47.1,37.4,29.89,SW,225,1.0,-999.0,69,0.01,,,0.87,Wunderground v.1.15,2013-03-16 20:40:00,
2013-03-16 13:45:00,48.5,43.3,29.86,SW,225,2.0,-999.0,82,0.01,,,0.87,Wunderground v.1.15,2013-03-16 20:45:00,
2013-03-16 13:50:00,48.5,43.3,29.86,SW,225,2.0,-999.0,82,0.01,,,0.87,Wunderground v.1.15,2013-03-16 20:50:00,
2013-03-16 13:55:00,48.5,43.3,29.86,SW,225,2.0,-999.0,82,0.01,,,0.87,Wunderground v.1.15,2013-03-16 20:55:00,
2013-03-16 14:00:00,48.5,43.3,29.86,SW,225,2.0,-999.0,82,0.01,,,0.87,Wunderground v.1.15,2013-03-16 21:00:00,
2013-03-16 14:05:00,48.5,43.3,29.86,SW,225,2.0,-999.0,82,0.01,,,0.87,Wunderground v.1.15,2013-03-16 21:05:00,
2013-03-16 14:10:00,48.5,43.3,29.86,SW,225,2.0,-999.0,82,0.01,,,0.87,Wunderground v.1.15,2013-03-16 21:10:00,
2013-03-16 14:15:00,44.5,29.3,29.84,SW,225,3.0,-999.0,55,0.02,,,0.87,Wunderground v.1.15,2013-03-16 21:15:00,
2013-03-16 14:20:00,44.5,29.3,29.84,SW,225,3.0,-999.0,55,0.02,,,0.87,Wunderground v.1.15,2013-03-16 21:20:00,
2013-03-16 14:25:00,44.5,29.3,29.84,SW,225,3.0,-999.0,55,0.02,,,0.87,Wunderground v.1.15,2013-03-16 21:25:00,
2013-03-16 14:30:00,44.5,29.3,29.84,SW,225,3.0,-999.0,55,0.02,,,0.87,Wunderground v.1.15,2013-03-16 21:30:00,
2013-03-16 14:35:00,44.5,29.3,29.84,SW,225,3.0,-999.0,55,0.02,,,0.87,Wunderground v.1.15,2013-03-16 21:35:00,
2013-03-16 14:40:00,44.5,29.3,29.84,SW,225,3.0,-999.0,55,0.02,,,0.87,Wunderground v.1.15,2013-03-16 21:40:00,
2013-03-16 14:45:00,42.0,15.6,29.87,SW,225,2.0,-999.0,34,0.14,,,0.87,Wunderground v.1.15,2013-03-16 21:45:00,
2013-03-16 14:50:00,42.0,15.6,29.87,SW,225,2.0,-999.0,34,0.14,,,0.87,Wunderground v.1.15,2013-03-16 21:50:00,
2013-03-16 14:55:00,42.0,15.6,29.87,SW,225,2.0,-999.0,34,0.14,,,0.87,Wunderground v.1.15,2013-03-16 21:55:00,
2013-03-16 15:00:00,42.0,15.6,29.87,SW,225,2.0,-999.0,34,0.14,,,0.87,Wunderground v.1.15,2013-03-16 22:00:00,
2013-03-16 15:05:00,42.0,15.6,29.87,SW,225,2.0,-999.0,34,0.14,,,0.87,Wunderground v.1.15,2013-03-16 22:05:00,
2013-03-16 15:10:00,42.0,15.6,29.87,SW,225,2.0,-999.0,34,0.14,,,0.87,Wunderground v.1.15,2013-03-16 22:10:00,
2013-03-16 15:15:00,40.6,16.3,29.88,WSW,248,2.0,-999.0,37,0.22,,,0.87,Wunderground v.1.15,2013-03-16 22:15:00,
2013-03-16 15:20:00,40.6,16.3,29.88,WSW,248,2.0,-999.0,37,0.22,,,0.87,Wunderground v.1.15,2013-03-16 22:20:00,
2013-03-16 15:25:00,40.6,16.3,29.88,WSW,248,2.0,-999.0,37,0.22,,,0.87,Wunderground v.1.15,2013-03-16 22:25:00,
2013-03-16 15:30:00,40.6,16.3,29.88,WSW,248,2.0,-999.0,37,0.22,,,0.87,Wunderground v.1.15,2013-03-16 22:30:00,
2013-03-16 15:35:00,40.6,16.3,29.88,WSW,248,2.0,-999.0,37,0.22,,,0.87,Wunderground v.1.15,2013-03-16 22:35:00,
2013-03-16 15:40:00,40.6,16.3,29.88,WSW,248,2.0,-999.0,37,0.22,,,0.87,Wunderground v.1.15,2013-03-16 22:40:00,
2013-03-16 15:45:00,38.8,23.1,29.89,West,270,2.0,-999.0,53,0.19,,,0.87,Wunderground v.1.15,2013-03-16 22:45:00,
2013-03-16 15:50:00,38.8,23.1,29.89,West,270,2.0,-999.0,53,0.19,,,0.87,Wunderground v.1.15,2013-03-16 22:50:00,
2013-03-16 15:55:00,38.8,23.1,29.89,West,270,2.0,-999.0,53,0.19,,,0.87,Wunderground v.1.15,2013-03-16 22:55:00,
2013-03-16 16:00:00,38.8,23.1,29.89,West,270,2.0,-999.0,53,0.19,,,0.87,Wunderground v.1.15,2013-03-16 23:00:00,
2013-03-16 16:05:00,38.8,23.1,29.89,West,270,2.0,-999.0,53,0.19,,,0.87,Wunderground v.1.15,2013-03-16 23:05:00,
2013-03-16 16:10:00,38.8,23.1,29.89,West,270,2.0,-999.0,53,0.19,,,0.87,Wunderground v.1.15,2013-03-16 23:10:00,
2013-03-16 16:15:00,37.6,14.8,29.90,SW,225,1.0,-999.0,39,0.14,,,0.87,Wunderground v.1.15,2013-03-16 23:15:00,
2013-03-16 16:20:00,37.6,14.8,29.90,SW,225,1.0,-999.0,39,0.14,,,0.87,Wunderground v.1.15,2013-03-16 23:20:00,
2013-03-16 16:25:00,37.6,14.8,29.90,SW,225,1.0,-999.0,39,0.14,,,0.87,Wunderground v.1.15,2013-03-16 23:25:00,
2013-03-16 16:30:00,37.6,14.8,29.90,SW,225,1.0,-999.0,39,0.14,,,0.87,Wunderground v.1.15,2013-03-16 23:30:00,
2013-03-16 16:35:00,37.6,14.8,29.90,SW,225,1.0,-999.0,39,0.14,,,0.87,Wunderground v.1.15,2013-03-16 23:35:00,
2013-03-16 16:40:00,37.6,14.8,29.90,SW,225,1.0,-999.0,39,0.14,,,0.87,Wunderground v.1.15,2013-03-16 23:40:00,
2013-03-16 16:45:00,37.8,3.2,29.90,SE,135,0.0,-999.0,23,0.10,,,0.87,Wunderground v.1.15,2013-03-16 23:45:00,
2013-03-16 16:50:00,37.8,3.2,29.90,SE,135,0.0,-999.0,23,0.10,,,0.87,Wunderground v.1.15,2013-03-16 23:50:00,
2013-03-16 16:55:00,37.8,3.2,29.90,SE,135,0.0,-999.0,23,0.10,,,0.87,Wunderground v.1.15,2013-03-16 23:55:00,
2013-03-16 17:00:00,37.8,3.2,29.90,SE,135,0.0,-999.0,23,0.10,,,0.87,Wunderground v.1.15,2013-03-17 00:00:00,
2013-03-16 17:05:00,37.8,3.2,29.90,SE,135,0.0,-999.0,23,0.10,,,0.87,Wunderground v.1.15,2013-03-17 00:05:00,
2013-03-16 17:10:00,37.8,3.2,29.90,SE,135,0.0,-999.0,23,0.10,,,0.87,Wunderground v.1.15,2013-03-17 00:10:00,
2013-03-16 17:15:00,37.3,13.4,29.90,SE,135,0.0,-999.0,37,0.09,,,0.87,Wunderground v.1.15,2013-03-17 00:15:00,
2013-03-16 17:20:00,37.3,13.4,29.90,SE,135,0.0,-999.0,37,0.09,,,0.87,Wunderground v.1.15,2013-03-17 00:20:00,
2013-03-16 17:25:00,37.3,13.4,29.90,SE,135,0.0,-999.0,37,0.09,,,0.87,Wunderground v.1.15,2013-03-17 00:25:00,
2013-03-16 17:30:00,37.3,13.4,29.90,SE,135,0.0,-999.0,37,0.09,,,0.87,Wunderground v.1.15,2013-03-17 00:30:00,
2013-03-16 17:35:00,37.3,13.4,29.90,SE,135,0.0,-999.0,37,0.09,,,0.87,Wunderground v.1.15,2013-03-17 00:35:00,
2013-03-16 17:40:00,37.3,13.4,29.90,SE,135,0.0,-999.0,37,0.09,,,0.87,Wunderground v.1.15,2013-03-17 00:40:00,
2013-03-16 17:45:00,36.1,19.2,29.91,SW,225,0.0,-999.0,50,0.10,,,0.87,Wunderground v.1.15,2013-03-17 00:45:00,
2013-03-16 17:50:00,36.1,19.2,29.91,SW,225,0.0,-999.0,50,0.10,,,0.87,Wunderground v.1.15,2013-03-17 00:50:00,
2013-03-16 17:55:00,36.1,19.2,29.91,SW,225,0.0,-999.0,50,0.10,,,0.87,Wunderground v.1.15,2013-03-17 00:55:00,
2013-03-16 18:00:00,36.1,19.2,29.91,SW,225,0.0,-999.0,50,0.10,,,0.87,Wunderground v.1.15,2013-03-17 01:00:00,
2013-03-16 18:05:00,36.1,19.2,29.91,SW,225,0.0,-999.0,50,0.10,,,0.87,Wunderground v.1.15,2013-03-17 01:05:00,
2013-03-16 18:10:00,36.1,19.2,29.91,SW,225,0.0,-999.0,50,0.10,,,0.87,Wunderground v.1.15,2013-03-17 01:10:00,
2013-03-16 18:15:00,35.3,-5.3,29.90,SW,225,1.0,-999.0,17,0.09,,,0.87,Wunderground v.1.15,2013-03-17 01:15:00,
2013-03-16 18:20:00,35.3,-5.3,29.90,SW,225,1.0,-999.0,17,0.09,,,0.87,Wunderground v.1.15,2013-03-17 01:20:00,
2013-03-16 18:25:00,35.3,-5.3,29.90,SW,225,1.0,-999.0,17,0.09,,,0.87,Wunderground v.1.15,2013-03-17 01:25:00,
2013-03-16 18:30:00,35.3,-5.3,29.90,SW,225,1.0,-999.0,17,0.09,,,0.87,Wunderground v.1.15,2013-03-17 01:30:00,
2013-03-16 18:35:00,35.3,-5.3,29.90,SW,225,1.0,-999.0,17,0.09,,,0.87,Wunderground v.1.15,2013-03-17 01:35:00,
2013-03-16 18:40:00,35.3,-5.3,29.90,SW,225,1.0,-999.0,17,0.09,,,0.87,Wunderground v.1.15,2013-03-17 01:40:00,
2013-03-16 18:45:00,36.5,-37.5,29.90,ESE,113,1.0,-999.0,3,0.03,,,0.87,Wunderground v.1.15,2013-03-17 01:45:00,
2013-03-16 18:50:00,36.5,-37.5,29.90,ESE,113,1.0,-999.0,3,0.03,,,0.87,Wunderground v.1.15,2013-03-17 01:50:00,
2013-03-16 18:55:00,36.5,-37.5,29.90,ESE,113,1.0,-999.0,3,0.03,,,0.87,Wunderground v.1.15,2013-03-17 01:55:00,
2013-03-16 19:00:00,36.5,-37.5,29.90,ESE,113,1.0,-999.0,3,0.03,,,0.87,Wunderground v.1.15,2013-03-17 02:00:00,
2013-03-16 19:05:00,36.5,-37.5,29.90,ESE,113,1.0,-999.0,3,0.03,,,0.87,Wunderground v.1.15,2013-03-17 02:05:00,
2013-03-16 19:10:00,36.5,-37.5,29.90,ESE,113,1.0,-999.0,3,0.03,,,0.87,Wunderground v.1.15,2013-03-17 02:10:00,
2013-03-16 19:15:00,37.1,-0.3,29.90,SSE,158,1.0,-999.0,20,0.00,,,0.87,Wunderground v.1.15,2013-03-17 02:15:00,
2013-03-16 19:20:00,37.1,-0.3,29.90,SSE,158,1.0,-999.0,20,0.00,,,0.87,Wunderground v.1.15,2013-03-17 02:20:00,
2013-03-16 19:25:00,37.1,-0.3,29.90,SSE,158,1.0,-999.0,20,0.00,,,0.87,Wunderground v.1.15,2013-03-17 02:25:00,
2013-03-16 19:30:00,37.1,-0.3,29.90,SSE,158,1.0,-999.0,20,0.00,,,0.87,Wunderground v.1.15,2013-03-17 02:30:00,
2013-03-16 19:35:00,37.1,-0.3,29.90,SSE,158,1.0,-999.0,20,0.00,,,0.87,Wunderground v.1.15,2013-03-17 02:35:00,
2013-03-16 19:40:00,37.1,-0.3,29.90,SSE,158,1.0,-999.0,20,0.00,,,0.87,Wunderground v.1.15,2013-03-17 02:40:00,
2013-03-16 19:45:00,37.1,0.7,29.91,SSE,158,1.0,-999.0,21,0.00,,,0.87,Wunderground v.1.15,2013-03-17 02:45:00,
2013-03-16 19:50:00,37.1,0.7,29.91,SSE,158,1.0,-999.0,21,0.00,,,0.87,Wunderground v.1.15,2013-03-17 02:50:00,
2013-03-16 19:55:00,37.1,0.7,29.91,SSE,158,1.0,-999.0,21,0.00,,,0.87,Wunderground v.1.15,2013-03-17 02:55:00,
2013-03-16 20:00:00,37.1,0.7,29.91,SSE,158,1.0,-999.0,21,0.00,,,0.87,Wunderground v.1.15,2013-03-17 03:00:00,
2013-03-16 20:05:00,37.1,0.7,29.91,SSE,158,1.0,-999.0,21,0.00,,,0.87,Wunderground v.1.15,2013-03-17 03:05:00,
2013-03-16 20:10:00,37.1,0.7,29.91,SSE,158,1.0,-999.0,21,0.00,,,0.87,Wunderground v.1.15,2013-03-17 03:10:00,
2013-03-16 20:15:00,36.6,-13.1,29.92,SE,135,0.0,-999.0,11,0.00,,,0.87,Wunderground v.1.15,2013-03-17 03:15:00,
2013-03-16 20:20:00,36.6,-13.1,29.92,SE,135,0.0,-999.0,11,0.00,,,0.87,Wunderground v.1.15,2013-03-17 03:20:00,
2013-03-16 20:25:00,36.6,-13.1,29.92,SE,135,0.0,-999.0,11,0.00,,,0.87,Wunderground v.1.15,2013-03-17 03:25:00,
2013-03-16 20:30:00,36.6,-13.1,29.92,SE,135,0.0,-999.0,11,0.00,,,0.87,Wunderground v.1.15,2013-03-17 03:30:00,
2013-03-16 20:35:00,36.6,-13.1,29.92,SE,135,0.0,-999.0,11,0.00,,,0.87,Wunderground v.1.15,2013-03-17 03:35:00,
2013-03-16 20:40:00,36.6,-13.1,29.92,SE,135,0.0,-999.0,11,0.00,,,0.87,Wunderground v.1.15,2013-03-17 03:40:00,
2013-03-16 20:45:00,36.7,-44.4,29.91,WSW,248,0.0,-999.0,2,0.00,,,0.87,Wunderground v.1.15,2013-03-17 03:45:00,
2013-03-16 20:50:00,36.7,-44.4,29.91,WSW,248,0.0,-999.0,2,0.00,,,0.87,Wunderground v.1.15,2013-03-17 03:50:00,
2013-03-16 20:55:00,36.7,-44.4,29.91,WSW,248,0.0,-999.0,2,0.00,,,0.87,Wunderground v.1.15,2013-03-17 03:55:00,
2013-03-16 21:00:00,36.7,-44.4,29.91,WSW,248,0.0,-999.0,2,0.00,,,0.87,Wunderground v.1.15,2013-03-17 04:00:00,
2013-03-16 21:05:00,36.7,-44.4,29.91,WSW,248,0.0,-999.0,2,0.00,,,0.87,Wunderground v.1.15,2013-03-17 04:05:00,
2013-03-16 21:10:00,36.7,-44.4,29.91,WSW,248,0.0,-999.0,2,0.00,,,0.87,Wunderground v.1.15,2013-03-17 04:10:00,
2013-03-16 21:15:00,37.1,-55.5,29.91,East,90,0.0,-999.0,1,0.00,,,0.87,Wunderground v.1.15,2013-03-17 04:15:00,
2013-03-16 21:20:00,37.1,-55.5,29.91,East,90,0.0,-999.0,1,0.00,,,0.87,Wunderground v.1.15,2013-03-17 04:20:00,
2013-03-16 21:25:00,37.1,-55.5,29.91,East,90,0.0,-999.0,1,0.00,,,0.87,Wunderground v.1.15,2013-03-17 04:25:00,
2013-03-16 21:30:00,37.1,-55.5,29.91,East,90,0.0,-999.0,1,0.00,,,0.87,Wunderground v.1.15,2013-03-17 04:30:00,
2013-03-16 21:35:00,37.1,-55.5,29.91,East,90,0.0,-999.0,1,0.00,,,0.87,Wunderground v.1.15,2013-03-17 04:35:00,
2013-03-16 21:40:00,37.1,-55.5,29.91,East,90,0.0,-999.0,1,0.00,,,0.87,Wunderground v.1.15,2013-03-17 04:40:00,
2013-03-16 21:45:00,38.0,-4.3,29.91,SE,135,1.0,-999.0,16,0.00,,,0.87,Wunderground v.1.15,2013-03-17 04:45:00,
2013-03-16 21:50:00,38.0,-4.3,29.91,SE,135,1.0,-999.0,16,0.00,,,0.87,Wunderground v.1.15,2013-03-17 04:50:00,
2013-03-16 21:55:00,38.0,-4.3,29.91,SE,135,1.0,-999.0,16,0.00,,,0.87,Wunderground v.1.15,2013-03-17 04:55:00,
2013-03-16 22:00:00,38.0,-4.3,29.91,SE,135,1.0,-999.0,16,0.00,,,0.87,Wunderground v.1.15,2013-03-17 05:00:00,
2013-03-16 22:05:00,38.0,-4.3,29.91,SE,135,1.0,-999.0,16,0.00,,,0.87,Wunderground v.1.15,2013-03-17 05:05:00,
2013-03-16 22:10:00,38.0,-4.3,29.91,SE,135,1.0,-999.0,16,0.00,,,0.87,Wunderground v.1.15,2013-03-17 05:10:00,
2013-03-16 22:15:00,38.3,14.9,29.91,SW,225,2.0,-999.0,38,0.01,,,0.87,Wunderground v.1.15,2013-03-17 05:15:00,
2013-03-16 22:20:00,38.3,14.9,29.91,SW,225,2.0,-999.0,38,0.01,,,0.87,Wunderground v.1.15,2013-03-17 05:20:00,
2013-03-16 22:25:00,38.3,14.9,29.91,SW,225,2.0,-999.0,38,0.01,,,0.87,Wunderground v.1.15,2013-03-17 05:25:00,
2013-03-16 22:30:00,38.3,14.9,29.91,SW,225,2.0,-999.0,38,0.01,,,0.87,Wunderground v.1.15,2013-03-17 05:30:00,
2013-03-16 22:35:00,38.3,14.9,29.91,SW,225,2.0,-999.0,38,0.01,,,0.87,Wunderground v.1.15,2013-03-17 05:35:00,
2013-03-16 22:40:00,38.3,14.9,29.91,SW,225,2.0,-999.0,38,0.01,,,0.87,Wunderground v.1.15,2013-03-17 05:40:00,
2013-03-16 22:45:00,37.7,9.7,29.92,SW,225,1.0,-999.0,31,0.01,,,0.87,Wunderground v.1.15,2013-03-17 05:45:00,
2013-03-16 22:50:00,37.7,9.7,29.92,SW,225,1.0,-999.0,31,0.01,,,0.87,Wunderground v.1.15,2013-03-17 05:50:00,
2013-03-16 22:55:00,37.7,9.7,29.92,SW,225,1.0,-999.0,31,0.01,,,0.87,Wunderground v.1.15,2013-03-17 05:55:00,
2013-03-16 23:00:00,37.7,9.7,29.92,SW,225,1.0,-999.0,31,0.01,,,0.87,Wunderground v.1.15,2013-03-17 06:00:00,
2013-03-16 23:05:00,37.7,9.7,29.92,SW,225,1.0,-999.0,31,0.01,,,0.87,Wunderground v.1.15,2013-03-17 06:05:00,
2013-03-16 23:10:00,37.7,9.7,29.92,SW,225,1.0,-999.0,31,0.01,,,0.87,Wunderground v.1.15,2013-03-17 06:10:00,
2013-03-16 23:15:00,36.7,-17.0,29.92,SSW,203,1.0,-999.0,9,0.00,,,0.87,Wunderground v.1.15,2013-03-17 06:15:00,
2013-03-16 23:20:00,36.7,-17.0,29.92,SSW,203,1.0,-999.0,9,0.00,,,0.87,Wunderground v.1.15,2013-03-17 06:20:00,
2013-03-16 23:25:00,36.7,-17.0,29.92,SSW,203,1.0,-999.0,9,0.00,,,0.87,Wunderground v.1.15,2013-03-17 06:25:00,
2013-03-16 23:30:00,36.7,-17.0,29.92,SSW,203,1.0,-999.0,9,0.00,,,0.87,Wunderground v.1.15,2013-03-17 06:30:00,
2013-03-16 23:35:00,36.7,-17.0,29.92,SSW,203,1.0,-999.0,9,0.00,,,0.87,Wunderground v.1.15,2013-03-17 06:35:00,
2013-03-16 23:40:00,36.7,-17.0,29.92,SSW,203,1.0,-999.0,9,0.00,,,0.87,Wunderground v.1.15,2013-03-17 06:40:00,
2013-03-16 23:45:00,36.8,-55.7,29.94,SE,135,1.0,-999.0,1,0.00,,,0.87,Wunderground v.1.15,2013-03-17 06:45:00,
2013-03-16 23:50:00,36.8,-55.7,29.94,SE,135,1.0,-999.0,1,0.00,,,0.87,Wunderground v.1.15,2013-03-17 06:50:00,
2013-03-16 23:55:00,36.8,-55.7,29.94,SE,135,1.0,-999.0,1,0.00,,,0.87,Wunderground v.1.15,2013-03-17 06:55:00,